星链-3154 (STARLINK-3154 )

导读 | 星芒AI

STARLINK-3154 是 SpaceX Starlink 项目中的一颗低轨通信卫星,属于第二代 Starlink 卫星(Gen2)批次。该卫星于 2024 年发射,旨在为全球用户提供高速、低延迟的互联网服务。它运行在约 550 公里的轨道高度,采用先进推进系统和激光通信技术,以提升网络效率和卫星间通信能力。作为 Starlink 卫星群的一部分,STARLINK-3154 支持农村和偏远地区的宽带接入,推动全球互联网覆盖的扩展。

基本信息
目录编号:
49417
目录名称:
STARLINK-3154
国际标识:
2021-104K
轨道中心:
EARTH
卫星名称:
星链-3154
卫星全名:
星链-3154 (STARLINK-3154 )
卫星状态:
在轨 (已飞行1498 天)
发射日期:
2021-11-13 UTC
国别 :
美国 (US)
星等 :
--
轨道信息
数据来源 国际轨道数据
星历时间: 2025-12-19T23:36:55+0800
9小时前
查看轨道信息
半长轴: 6917.885km
偏心率: 0.000152
轨道倾角: 53.217°
近地点辐角 91.985°
升交点赤经 218.085°
平近点角 268.132°
近地点: 538.696km
远地点: 540.8km
周期: 95.438分钟
每日圈数: 15.088387
详细信息
固有亮度:
5
最大亮度:
2.5
卫星平台:
Starlink v1.5
覆盖范围:
全球
运营商:
太空探索技术公司
运营商所在国:
美国
制造商(研发单位):
太空探索技术公司
制造商所在国:
美国
使用方式:
暂无
卫星简介
星链(Starlink)计划是由太空探索技术公司(SpaceX)提出的一个巨型低轨卫星互联网星座项目,计划在2019年至2024年间在太空搭建由约1.2万颗卫星组成的“星链”网络,其中1584颗将部署在地球上空550千米处的近地轨道,并从2020年开始工作。该卫星仍在工作。
2D轨道图
3D轨道图
轨道高度分析图
轨道倾角分析图
轨道综合分析图
查看轨道综合分析图